Hot Springs, AR

3:06 PM CDT on July 24, 2017 (GMT -0500)
Hot Springs Memorial

Weather History for KHOT - February, 2013

Change the Weather History Date:

Wednesday, February 20, 2013

  Actual Average Record
Temperature  
Mean Temperature 34 °F -  
Max Temperature 39 °F 58 °F 86 °F (1986)
Min Temperature 30 °F 34 °F 17 °F (1978)
Degree Days  
Heating Degree Days 30    
Moisture  
Dew Point 25 °F    
Average Humidity 76    
Maximum Humidity 87    
Minimum Humidity 41    
Precipitation  
Precipitation 0.31 in - - ()
Sea Level Pressure  
Sea Level Pressure 30.23 in    
Wind  
Wind Speed 6 mph (East)    
Max Wind Speed 14 mph    
Max Gust Speed 43 mph    
Visibility 8 miles    
Events Rain , Snow    
Averages and records for this station are not official NWS values.
T = Trace of Precipitation, MM = Missing Value Source: NWS Daily Summary

Daily Weather History Graph

Daily Weather History Graph

Search for Another Location

Airport or City:

Trip Planner

Search our weather history database for the weather conditions in past years. The results will help you decide how hot, cold, wet, or windy it might be!

Date:

Astronomy

Feb. 20, 2013 Rise Set
Actual Time 6:51 AM CST 6:00 PM CST
Civil Twilight 6:26 AM CST 6:26 PM CST
Nautical Twilight 5:57 AM CST 6:55 PM CST
Astronomical Twilight 5:27 AM CST 7:24 PM CST
Moon 1:29 PM CST (2/20) 3:05 AM CST (2/20)
Length of Visible Light 11h 59m
Length of Day
11h 08m
Waxing Gibbous, 76% of the Moon is Illuminated
Feb 20
Waxing Gibbous
Feb 25
Full
Mar 4
Last Quarter
Mar 11
New
Mar 19
First Quarter

Hourly Weather History & Observations

Time (CST) Temp. Windchill Dew Point Humidity Pressure Visibility Wind Dir Wind Speed Gust Speed Precip Events Conditions
12:53 AM 34.0 °F - 27.0 °F 75% 30.27 in 10.0 mi Calm Calm - N/A   Clear
1:53 AM 34.0 °F - 28.0 °F 79% 30.29 in 10.0 mi Calm Calm - N/A   Clear
2:53 AM 37.9 °F 33.5 °F 23.0 °F 55% 30.27 in 10.0 mi East 5.8 mph - N/A   Clear
3:53 AM 39.0 °F 34.8 °F 19.0 °F 45% 30.26 in 10.0 mi East 5.8 mph - N/A   Clear
4:53 AM 39.0 °F 36.8 °F 18.0 °F 43% 30.27 in 10.0 mi SE 3.5 mph - N/A   Clear
5:53 AM 39.0 °F 36.8 °F 18.0 °F 43% 30.31 in 10.0 mi ESE 3.5 mph - N/A   Overcast
6:53 AM 37.9 °F 31.5 °F 16.0 °F 41% 30.32 in 10.0 mi East 9.2 mph - N/A   Overcast
7:53 AM 37.0 °F 28.5 °F 16.0 °F 42% 30.29 in 10.0 mi East 13.8 mph - N/A   Overcast
8:31 AM 33.8 °F 27.7 °F 21.2 °F 60% 30.18 in 3.0 mi Variable 6.9 mph 42.6 mph 0.02 in Rain Light Freezing Rain
8:40 AM 33.8 °F 27.7 °F 21.2 °F 60% 30.24 in 7.0 mi Variable 6.9 mph 23.0 mph 0.02 in Rain Light Freezing Rain
8:53 AM 34.0 °F 26.6 °F 21.9 °F 61% 30.27 in 10.0 mi ESE 9.2 mph 19.6 mph 0.02 in Rain Light Freezing Rain
9:02 AM 33.8 °F 27.0 °F 23.0 °F 65% 30.26 in 10.0 mi East 8.1 mph - 0.00 in Rain Light Rain
9:53 AM 33.1 °F 28.7 °F 26.1 °F 75% 30.29 in 5.0 mi East 4.6 mph - 0.02 in Rain Light Freezing Rain
10:01 AM 32.0 °F 27.5 °F 26.6 °F 80% 30.29 in 4.0 mi SE 4.6 mph - 0.01 in Rain Light Freezing Rain
10:26 AM 33.8 °F 28.6 °F 26.6 °F 75% 30.29 in 8.0 mi ESE 5.8 mph - 0.03 in Rain Light Freezing Rain
10:53 AM 33.1 °F 26.1 °F 26.1 °F 75% 30.33 in 10.0 mi East 8.1 mph - 0.03 in Rain Light Freezing Rain
11:06 AM 33.8 °F 28.6 °F 26.6 °F 75% 30.32 in 10.0 mi East 5.8 mph - 0.00 in   Overcast
11:53 AM 33.1 °F 26.9 °F 27.0 °F 78% 30.30 in 10.0 mi East 6.9 mph - 0.00 in Rain Light Rain
12:25 PM 33.8 °F - 26.6 °F 75% 30.33 in 10.0 mi Calm Calm - N/A Rain Light Rain
12:43 PM 32.0 °F 26.4 °F 26.6 °F 80% 30.30 in 3.0 mi East 5.8 mph - 0.00 in Snow Light Snow
12:53 PM 32.0 °F 24.8 °F 27.0 °F 82% 30.27 in 1.8 mi East 8.1 mph - 0.01 in Snow Light Snow
1:01 PM 32.0 °F 24.8 °F 26.6 °F 80% 30.26 in 2.5 mi East 8.1 mph - 0.01 in Snow Light Snow
1:03 PM 32.0 °F 24.8 °F 26.6 °F 80% 30.26 in 3.0 mi East 8.1 mph - 0.02 in Rain Light Freezing Rain
1:19 PM 32.0 °F 23.0 °F 26.6 °F 80% 30.23 in 6.0 mi ENE 11.5 mph - 0.04 in Rain Light Freezing Rain
1:53 PM 32.0 °F 24.8 °F 27.0 °F 82% 30.23 in 10.0 mi ENE 8.1 mph - 0.04 in Rain Light Freezing Rain
2:00 PM 32.0 °F 24.2 °F 28.4 °F 87% 30.21 in 10.0 mi ENE 9.2 mph - N/A   Overcast
2:25 PM 32.0 °F 23.6 °F 26.6 °F 80% 30.21 in 6.0 mi ENE 10.4 mph - 0.01 in Rain Light Freezing Rain
2:53 PM 30.2 °F 21.9 °F 26.6 °F 86% 30.20 in 5.0 mi East 9.2 mph - N/A Rain Light Freezing Rain
3:21 PM 30.2 °F 21.3 °F 26.6 °F 86% 30.19 in 10.0 mi East 10.4 mph - 0.00 in   Overcast
3:29 PM 30.2 °F 21.9 °F 26.6 °F 86% 30.19 in 6.0 mi East 9.2 mph - 0.01 in Rain Light Freezing Rain
3:53 PM 30.9 °F 24.3 °F 27.0 °F 85% 30.20 in 6.0 mi East 6.9 mph - 0.03 in Rain Light Freezing Rain
4:09 PM 30.2 °F 22.6 °F 26.6 °F 86% 30.19 in 3.0 mi East 8.1 mph - 0.04 in Rain Light Freezing Rain
4:17 PM 30.2 °F 23.4 °F 26.6 °F 86% 30.21 in 2.5 mi East 6.9 mph - 0.07 in Rain Light Freezing Rain
4:27 PM 30.2 °F 22.6 °F 26.6 °F 86% 30.21 in 3.0 mi ESE 8.1 mph - 0.09 in Rain Light Freezing Rain
4:48 PM 30.2 °F 24.3 °F 26.6 °F 86% 30.20 in 4.0 mi ESE 5.8 mph - 0.11 in   Overcast
4:53 PM 30.9 °F 22.8 °F 27.0 °F 85% 30.20 in 5.0 mi ESE 9.2 mph - 0.11 in Rain Light Freezing Rain
5:00 PM 30.2 °F 23.4 °F 26.6 °F 86% 30.18 in 6.0 mi East 6.9 mph - 0.01 in Rain Light Freezing Rain
5:46 PM 30.2 °F 23.4 °F 26.6 °F 86% 30.19 in 10.0 mi East 6.9 mph - 0.01 in   Overcast
5:53 PM 30.9 °F 22.8 °F 27.0 °F 85% 30.19 in 10.0 mi East 9.2 mph - 0.01 in   Overcast
6:32 PM 30.2 °F 21.9 °F 26.6 °F 86% 30.18 in 10.0 mi ENE 9.2 mph - 0.00 in Rain Light Freezing Rain
6:50 PM 30.2 °F 21.9 °F 26.6 °F 86% 30.17 in 10.0 mi East 9.2 mph 16.1 mph 0.01 in   Overcast
6:53 PM 30.9 °F 22.2 °F 27.0 °F 85% 30.16 in 10.0 mi East 10.4 mph - 0.01 in   Overcast
7:36 PM 30.2 °F 21.3 °F 26.6 °F 86% 30.16 in 8.0 mi East 10.4 mph - 0.01 in Rain Light Freezing Rain
7:53 PM 30.9 °F 21.2 °F 26.1 °F 82% 30.17 in 10.0 mi East 12.7 mph - 0.01 in Rain Light Freezing Rain
8:04 PM 30.2 °F 22.6 °F 26.6 °F 86% 30.14 in 10.0 mi East 8.1 mph - 0.00 in   Overcast
8:53 PM 30.9 °F 21.7 °F 26.1 °F 82% 30.15 in 10.0 mi East 11.5 mph - 0.01 in   Overcast
9:53 PM 30.9 °F 22.2 °F 26.1 °F 82% 30.13 in 10.0 mi East 10.4 mph - 0.00 in   Overcast
10:53 PM 30.9 °F 23.5 °F 27.0 °F 85% 30.12 in 10.0 mi East 8.1 mph - 0.00 in   Overcast
11:53 PM 30.9 °F 21.7 °F 27.0 °F 85% 30.10 in 10.0 mi East 11.5 mph - 0.01 in   Overcast